Location: Beaver Brook Trail
(44.0290°N, 71.8137°W)
Time: 18:00:42
(UTC+00:00)

deb Explorer IX - Visible Passes

Search period start: 13 November 2024 00:00
Search period end: 23 November 2024 00:00
Orbit: 493 x 780 km, 38.7° (Epoch: 13 November)

Date Brightness Start Highest point End Pass type
(mag) Time Alt. Az. Time Alt. Az. Time Alt. Az.
13 Nov ? 00:53:56 10° WSW 00:55:01 16° WSW 00:55:01 16° WSW visible
13 Nov ? 21:53:21 10° S 21:56:34 18° SSE 21:59:55 10° ESE visible
13 Nov ? 23:33:54 10° SW 23:38:37 39° SSE 23:38:44 39° SSE visible
14 Nov ? 01:16:03 10° WSW 01:16:08 10° WSW 01:16:08 10° WSW visible
14 Nov ? 22:14:14 10° SSW 22:18:18 27° SSE 22:22:20 11° ESE visible
14 Nov ? 23:55:44 10° WSW 23:59:43 42° SSW 23:59:43 42° SSW visible
15 Nov ? 22:35:36 10° SW 22:40:03 37° SSE 22:43:12 19° ESE visible
16 Nov ? 00:17:35 10° WSW 00:20:35 33° SW 00:20:35 33° SW visible
16 Nov ? 22:57:09 10° WSW 23:01:47 44° S 23:03:57 28° ESE visible
17 Nov ? 00:39:26 10° W 00:41:20 22° WSW 00:41:20 22° WSW visible
17 Nov ? 23:18:46 10° WSW 23:23:27 47° S 23:24:37 39° SE visible
18 Nov ? 01:01:16 10° W 01:01:59 14° WSW 01:01:59 14° WSW visible
18 Nov ? 21:58:13 10° WSW 22:02:35 42° S 22:07:21 10° ESE visible
18 Nov ? 23:40:22 10° WSW 23:44:59 42° S 23:45:11 42° S visible
19 Nov ? 22:19:35 10° WSW 22:24:01 45° S 22:28:20 13° ESE visible
20 Nov ? 00:01:58 10° W 00:05:42 32° SSW 00:05:42 32° SSW visible
20 Nov ? 22:40:56 10° WSW 22:45:21 42° S 22:48:49 17° ESE visible
21 Nov ? 00:23:39 10° WSW 00:26:11 21° SW 00:26:11 21° SW visible
21 Nov ? 23:02:17 10° W 23:06:31 34° SSW 23:09:17 19° SE visible
22 Nov ? 00:45:46 10° WSW 00:46:39 12° SW 00:46:39 12° SW visible
22 Nov ? 21:41:07 10° WSW 21:45:18 41° S 21:49:52 10° ESE visible
22 Nov ? 23:23:42 10° WSW 23:27:30 24° SSW 23:29:46 18° SSE visible
